Location: Beuerbach
(48.1459°N, 10.9174°E)
Time: 08:54:42
(UTC+00:00)

Cosmos 1703 - Pass Details

Date: 23 May 2024
Orbit: 486 x 499 km, 82.5° (Epoch: 15 June)

Event Time Altitude Azimuth Distance (km) Brightness Sun altitude
Exits shadow 02:00:11 16° 195° (SSW) 1,379 4.8 -11.7°
Maximum altitude 02:03:07 75° 280° (W) 525 3.1 -11.4°
Drops below altitude 10° 02:06:53 10° 6° (N) 1,714 6.7 -11.0°
Sets 02:09:00 0° 9° (N) 2,600 7.8 -10.8°
